owner,sensor,date,latitude,longitude,air_temperature,qcFlag 
COMPS,ioos:station:USF.COMPS:C10:1,2012-11-02T09:20:00Z,27.1690,-82.9260,22.27,1111122 
COMPS,ioos:station:USF.COMPS:C10:1,2012-11-02T09:40:00Z,27.1690,-82.9260,22.37,1111122 
COMPS,ioos:station:USF.COMPS:C10:1,2012-11-02T10:00:00Z,27.1690,-82.9260,22.57,1111122 
COMPS,ioos:station:USF.COMPS:C10:1,2012-11-02T10:20:00Z,27.1690,-82.9260,21.34,1111122 
COMPS,ioos:station:USF.COMPS:C10:1,2012-11-02T10:40:00Z,27.1690,-82.9260,20.81,1111122 
COMPS,ioos:station:USF.COMPS:C10:1,2012-11-02T11:00:00Z,27.1690,-82.9260,20.96,1111122 
COMPS,ioos:station:USF.COMPS:C10:1,2012-11-02T11:20:00Z,27.1690,-82.9260,20.95,1111122 
COMPS,ioos:station:USF.COMPS:C10:1,2012-11-02T11:40:00Z,27.1690,-82.9260,20.89,1111122 
COMPS,ioos:station:USF.COMPS:C10:1,2012-11-02T12:00:00Z,27.1690,-82.9260,21.03,1111122 
COMPS,ioos:station:USF.COMPS:C10:1,2012-11-02T12:20:00Z,27.1690,-82.9260,21.09,1111122 
COMPS,ioos:station:USF.COMPS:C10:1,2012-11-02T12:40:00Z,27.1690,-82.9260,21.34,1111122 
COMPS,ioos:station:USF.COMPS:C10:1,2012-11-02T13:00:00Z,27.1690,-82.9260,21.53,1111122 
COMPS,ioos:station:USF.COMPS:C10:1,2012-11-02T13:20:00Z,27.1690,-82.9260,21.71,1111122 
COMPS,ioos:station:USF.COMPS:C10:1,2012-11-02T13:40:00Z,27.1690,-82.9260,21.32,1111122 
COMPS,ioos:station:USF.COMPS:C10:1,2012-11-02T14:00:00Z,27.1690,-82.9260,21.45,1111122 
COMPS,ioos:station:USF.COMPS:C10:1,2012-11-02T14:20:00Z,27.1690,-82.9260,21.36,1111122 
COMPS,ioos:station:USF.COMPS:C10:1,2012-11-02T14:40:00Z,27.1690,-82.9260,21.44,1111122 
COMPS,ioos:station:USF.COMPS:C10:1,2012-11-02T15:00:00Z,27.1690,-82.9260,21.61,1111122 
COMPS,ioos:station:USF.COMPS:C10:1,2012-11-02T15:20:00Z,27.1690,-82.9260,21.56,1111122 
COMPS,ioos:station:USF.COMPS:C10:1,2012-11-02T15:40:00Z,27.1690,-82.9260,21.66,1111122 
COMPS,ioos:station:USF.COMPS:C10:1,2012-11-02T16:00:00Z,27.1690,-82.9260,21.44,1111122 
COMPS,ioos:station:USF.COMPS:C10:1,2012-11-02T16:20:00Z,27.1690,-82.9260,21.37,1111122 
COMPS,ioos:station:USF.COMPS:C10:1,2012-11-02T16:40:00Z,27.1690,-82.9260,21.3,1111122 
COMPS,ioos:station:USF.COMPS:C10:1,2012-11-02T17:00:00Z,27.1690,-82.9260,21.21,1111122 
COMPS,ioos:station:USF.COMPS:C10:1,2012-11-02T17:20:00Z,27.1690,-82.9260,21.17,1111122 
COMPS,ioos:station:USF.COMPS:C10:1,2012-11-02T17:40:00Z,27.1690,-82.9260,21.38,1111122 
COMPS,ioos:station:USF.COMPS:C10:1,2012-11-02T18:00:00Z,27.1690,-82.9260,21.49,1111122 
COMPS,ioos:station:USF.COMPS:C10:1,2012-11-02T18:20:00Z,27.1690,-82.9260,21.24,1111122 
COMPS,ioos:station:USF.COMPS:C10:1,2012-11-02T18:40:00Z,27.1690,-82.9260,21.33,1111122 
COMPS,ioos:station:USF.COMPS:C10:1,2012-11-02T19:00:00Z,27.1690,-82.9260,21.68,1111122 
COMPS,ioos:station:USF.COMPS:C10:1,2012-11-02T19:20:00Z,27.1690,-82.9260,22.24,1111122 
COMPS,ioos:station:USF.COMPS:C10:1,2012-11-02T19:40:00Z,27.1690,-82.9260,21.63,1111122 
COMPS,ioos:station:USF.COMPS:C10:1,2012-11-02T20:00:00Z,27.1690,-82.9260,21.52,1111122 
COMPS,ioos:station:USF.COMPS:C10:1,2012-11-02T20:20:00Z,27.1690,-82.9260,21.36,1111122 
COMPS,ioos:station:USF.COMPS:C10:1,2012-11-02T20:40:00Z,27.1690,-82.9260,21.47,1111122 
COMPS,ioos:station:USF.COMPS:C10:1,2012-11-02T21:00:00Z,27.1690,-82.9260,21.56,1111122 
COMPS,ioos:station:USF.COMPS:C10:1,2012-11-02T21:20:00Z,27.1690,-82.9260,21.6,1111122 
COMPS,ioos:station:USF.COMPS:C10:1,2012-11-02T21:40:00Z,27.1690,-82.9260,21.8,1111122 
COMPS,ioos:station:USF.COMPS:C10:1,2012-11-02T22:00:00Z,27.1690,-82.9260,21.89,1111122 
COMPS,ioos:station:USF.COMPS:C10:1,2012-11-02T22:20:00Z,27.1690,-82.9260,21.73,1111122 
COMPS,ioos:station:USF.COMPS:C10:1,2012-11-02T22:40:00Z,27.1690,-82.9260,21.61,1111122 
COMPS,ioos:station:USF.COMPS:C10:1,2012-11-02T23:00:00Z,27.1690,-82.9260,21.56,1111122 
COMPS,ioos:station:USF.COMPS:C10:1,2012-11-02T23:20:00Z,27.1690,-82.9260,21.59,1111122 
COMPS,ioos:station:USF.COMPS:C10:1,2012-11-02T23:40:00Z,27.1690,-82.9260,21.61,1111122 
COMPS,ioos:station:USF.COMPS:C10:1,2012-11-03T00:00:00Z,27.1690,-82.9260,21.59,1111122 
COMPS,ioos:station:USF.COMPS:C10:1,2012-11-03T00:20:00Z,27.1690,-82.9260,21.66,1111122 
COMPS,ioos:station:USF.COMPS:C10:1,2012-11-03T00:40:00Z,27.1690,-82.9260,21.64,1111122 
COMPS,ioos:station:USF.COMPS:C10:1,2012-11-03T01:00:00Z,27.1690,-82.9260,21.66,1111122 
COMPS,ioos:station:USF.COMPS:C10:1,2012-11-03T01:20:00Z,27.1690,-82.9260,21.69,1111122 
COMPS,ioos:station:USF.COMPS:C10:1,2012-11-03T01:40:00Z,27.1690,-82.9260,21.82,1111122 
COMPS,ioos:station:USF.COMPS:C10:1,2012-11-03T02:00:00Z,27.1690,-82.9260,21.83,1111122 
COMPS,ioos:station:USF.COMPS:C10:1,2012-11-03T02:20:00Z,27.1690,-82.9260,21.97,1111122 
COMPS,ioos:station:USF.COMPS:C10:1,2012-11-03T02:40:00Z,27.1690,-82.9260,22.0,1111122 
COMPS,ioos:station:USF.COMPS:C10:1,2012-11-03T03:00:00Z,27.1690,-82.9260,22.07,1111122 
COMPS,ioos:station:USF.COMPS:C10:1,2012-11-03T03:20:00Z,27.1690,-82.9260,22.16,1111122 
COMPS,ioos:station:USF.COMPS:C10:1,2012-11-03T03:40:00Z,27.1690,-82.9260,22.17,1111122 
COMPS,ioos:station:USF.COMPS:C10:1,2012-11-03T04:00:00Z,27.1690,-82.9260,22.35,1111122 
COMPS,ioos:station:USF.COMPS:C10:1,2012-11-03T04:20:00Z,27.1690,-82.9260,22.26,1111122 
COMPS,ioos:station:USF.COMPS:C10:1,2012-11-03T04:40:00Z,27.1690,-82.9260,22.2,1111122 
COMPS,ioos:station:USF.COMPS:C10:1,2012-11-03T05:00:00Z,27.1690,-82.9260,22.25,1111122 
COMPS,ioos:station:USF.COMPS:C10:1,2012-11-03T05:20:00Z,27.1690,-82.9260,22.17,1111122 
COMPS,ioos:station:USF.COMPS:C10:1,2012-11-03T05:40:00Z,27.1690,-82.9260,22.11,1111122 
COMPS,ioos:station:USF.COMPS:C10:1,2012-11-03T06:00:00Z,27.1690,-82.9260,22.13,1111122 
COMPS,ioos:station:USF.COMPS:C10:1,2012-11-03T06:20:00Z,27.1690,-82.9260,22.1,1111122 
COMPS,ioos:station:USF.COMPS:C10:1,2012-11-03T06:40:00Z,27.1690,-82.9260,22.11,1111122 
COMPS,ioos:station:USF.COMPS:C10:1,2012-11-03T07:00:00Z,27.1690,-82.9260,22.1,1111122 
COMPS,ioos:station:USF.COMPS:C10:1,2012-11-03T07:20:00Z,27.1690,-82.9260,22.11,1111122 
COMPS,ioos:station:USF.COMPS:C10:1,2012-11-03T07:40:00Z,27.1690,-82.9260,22.14,1111122 
COMPS,ioos:station:USF.COMPS:C10:1,2012-11-03T08:00:00Z,27.1690,-82.9260,22.14,1111122 
COMPS,ioos:station:USF.COMPS:C10:1,2012-11-03T08:20:00Z,27.1690,-82.9260,22.15,1111122 
COMPS,ioos:station:USF.COMPS:C10:1,2012-11-03T08:40:00Z,27.1690,-82.9260,22.17,1111122 
COMPS,ioos:station:USF.COMPS:C10:1,2012-11-03T09:00:00Z,27.1690,-82.9260,22.21,1111122 
COMPS,ioos:station:USF.COMPS:C10:1,2012-11-03T09:20:00Z,27.1690,-82.9260,22.23,1111122 
COMPS,ioos:station:USF.COMPS:C10:1,2012-11-03T09:40:00Z,27.1690,-82.9260,22.26,1111122 
COMPS,ioos:station:USF.COMPS:C10:1,2012-11-03T10:00:00Z,27.1690,-82.9260,22.31,1111122 
COMPS,ioos:station:USF.COMPS:C10:1,2012-11-03T10:20:00Z,27.1690,-82.9260,22.29,1111122 
COMPS,ioos:station:USF.COMPS:C10:1,2012-11-03T10:40:00Z,27.1690,-82.9260,22.34,1111122 
COMPS,ioos:station:USF.COMPS:C10:1,2012-11-03T11:00:00Z,27.1690,-82.9260,22.42,1111122 
COMPS,ioos:station:USF.COMPS:C10:1,2012-11-03T11:20:00Z,27.1690,-82.9260,22.42,1111122 
COMPS,ioos:station:USF.COMPS:C10:1,2012-11-03T11:40:00Z,27.1690,-82.9260,22.45,1111122 
COMPS,ioos:station:USF.COMPS:C10:1,2012-11-03T12:00:00Z,27.1690,-82.9260,22.63,1111122 
COMPS,ioos:station:USF.COMPS:C10:1,2012-11-03T12:20:00Z,27.1690,-82.9260,22.81,1111122 
COMPS,ioos:station:USF.COMPS:C10:1,2012-11-03T12:40:00Z,27.1690,-82.9260,22.95,1111122 
COMPS,ioos:station:USF.COMPS:C10:1,2012-11-03T13:00:00Z,27.1690,-82.9260,23.04,1111122 
COMPS,ioos:station:USF.COMPS:C10:1,2012-11-03T13:20:00Z,27.1690,-82.9260,22.94,1111122 
COMPS,ioos:station:USF.COMPS:C10:1,2012-11-03T13:40:00Z,27.1690,-82.9260,23.04,1111122 
COMPS,ioos:station:USF.COMPS:C10:1,2012-11-03T14:00:00Z,27.1690,-82.9260,22.88,1111122 
COMPS,ioos:station:USF.COMPS:C10:1,2012-11-03T14:20:00Z,27.1690,-82.9260,22.84,1111122 
COMPS,ioos:station:USF.COMPS:C10:1,2012-11-03T14:40:00Z,27.1690,-82.9260,22.92,1111122 
COMPS,ioos:station:USF.COMPS:C10:1,2012-11-03T15:00:00Z,27.1690,-82.9260,22.91,1111122 
COMPS,ioos:station:USF.COMPS:C10:1,2012-11-03T15:20:00Z,27.1690,-82.9260,22.91,1111122 
COMPS,ioos:station:USF.COMPS:C10:1,2012-11-03T15:40:00Z,27.1690,-82.9260,22.96,1111122 
COMPS,ioos:station:USF.COMPS:C10:1,2012-11-03T16:00:00Z,27.1690,-82.9260,22.89,1111122 
COMPS,ioos:station:USF.COMPS:C10:1,2012-11-03T16:20:00Z,27.1690,-82.9260,22.96,1111122 
COMPS,ioos:station:USF.COMPS:C10:1,2012-11-03T16:40:00Z,27.1690,-82.9260,22.96,1111122 
COMPS,ioos:station:USF.COMPS:C10:1,2012-11-03T17:00:00Z,27.1690,-82.9260,22.99,1111122 
COMPS,ioos:station:USF.COMPS:C10:1,2012-11-03T17:20:00Z,27.1690,-82.9260,23.07,1111122 
COMPS,ioos:station:USF.COMPS:C10:1,2012-11-03T17:40:00Z,27.1690,-82.9260,23.02,1111122 
COMPS,ioos:station:USF.COMPS:C10:1,2012-11-03T18:00:00Z,27.1690,-82.9260,23.07,1111122 
COMPS,ioos:station:USF.COMPS:C10:1,2012-11-03T18:20:00Z,27.1690,-82.9260,23.14,1111122 
COMPS,ioos:station:USF.COMPS:C10:1,2012-11-03T18:40:00Z,27.1690,-82.9260,23.12,1111122 
COMPS,ioos:station:USF.COMPS:C10:1,2012-11-03T19:00:00Z,27.1690,-82.9260,23.19,1111122 
COMPS,ioos:station:USF.COMPS:C10:1,2012-11-03T19:20:00Z,27.1690,-82.9260,23.19,1111122 
COMPS,ioos:station:USF.COMPS:C10:1,2012-11-03T19:40:00Z,27.1690,-82.9260,23.33,1111122 
COMPS,ioos:station:USF.COMPS:C10:1,2012-11-03T20:00:00Z,27.1690,-82.9260,23.33,1111122 
COMPS,ioos:station:USF.COMPS:C10:1,2012-11-03T20:20:00Z,27.1690,-82.9260,23.37,1111122 
COMPS,ioos:station:USF.COMPS:C10:1,2012-11-03T20:40:00Z,27.1690,-82.9260,23.45,1111122 
COMPS,ioos:station:USF.COMPS:C10:1,2012-11-03T21:00:00Z,27.1690,-82.9260,23.52,1111122 
COMPS,ioos:station:USF.COMPS:C10:1,2012-11-03T21:20:00Z,27.1690,-82.9260,23.5,1111122 
COMPS,ioos:station:USF.COMPS:C10:1,2012-11-03T21:40:00Z,27.1690,-82.9260,23.48,1111122 
COMPS,ioos:station:USF.COMPS:C10:1,2012-11-03T22:00:00Z,27.1690,-82.9260,23.69,1111122 
COMPS,ioos:station:USF.COMPS:C10:1,2012-11-03T22:20:00Z,27.1690,-82.9260,23.59,1111122 
COMPS,ioos:station:USF.COMPS:C10:1,2012-11-03T22:40:00Z,27.1690,-82.9260,23.34,1111122 
COMPS,ioos:station:USF.COMPS:C10:1,2012-11-03T23:00:00Z,27.1690,-82.9260,23.45,1111122 
COMPS,ioos:station:USF.COMPS:C10:1,2012-11-03T23:20:00Z,27.1690,-82.9260,23.51,1111122 
COMPS,ioos:station:USF.COMPS:C10:1,2012-11-03T23:40:00Z,27.1690,-82.9260,23.33,1111122 
COMPS,ioos:station:USF.COMPS:C10:1,2012-11-04T00:00:00Z,27.1690,-82.9260,23.27,1111122 
COMPS,ioos:station:USF.COMPS:C10:1,2012-11-04T00:20:00Z,27.1690,-82.9260,23.16,1111122 
COMPS,ioos:station:USF.COMPS:C10:1,2012-11-04T00:40:00Z,27.1690,-82.9260,23.11,1111122 
COMPS,ioos:station:USF.COMPS:C10:1,2012-11-04T01:00:00Z,27.1690,-82.9260,23.16,1111122 
COMPS,ioos:station:USF.COMPS:C10:1,2012-11-04T01:20:00Z,27.1690,-82.9260,23.19,1111122 
COMPS,ioos:station:USF.COMPS:C10:1,2012-11-04T01:40:00Z,27.1690,-82.9260,23.13,1111122 
COMPS,ioos:station:USF.COMPS:C10:1,2012-11-04T02:00:00Z,27.1690,-82.9260,23.08,1111122 
COMPS,ioos:station:USF.COMPS:C10:1,2012-11-04T02:20:00Z,27.1690,-82.9260,23.02,1111122 
COMPS,ioos:station:USF.COMPS:C10:1,2012-11-04T02:40:00Z,27.1690,-82.9260,23.03,1111122 
COMPS,ioos:station:USF.COMPS:C10:1,2012-11-04T03:00:00Z,27.1690,-82.9260,23.02,1111122 
COMPS,ioos:station:USF.COMPS:C10:1,2012-11-04T03:20:00Z,27.1690,-82.9260,22.93,1111122 
COMPS,ioos:station:USF.COMPS:C10:1,2012-11-04T03:40:00Z,27.1690,-82.9260,22.86,1111122 
COMPS,ioos:station:USF.COMPS:C10:1,2012-11-04T04:00:00Z,27.1690,-82.9260,22.88,1111122 
COMPS,ioos:station:USF.COMPS:C10:1,2012-11-04T04:20:00Z,27.1690,-82.9260,22.73,1111122 
COMPS,ioos:station:USF.COMPS:C10:1,2012-11-04T04:40:00Z,27.1690,-82.9260,22.74,1111122 
COMPS,ioos:station:USF.COMPS:C10:1,2012-11-04T05:00:00Z,27.1690,-82.9260,22.67,1111122 
COMPS,ioos:station:USF.COMPS:C10:1,2012-11-04T05:20:00Z,27.1690,-82.9260,22.69,1111122 
COMPS,ioos:station:USF.COMPS:C10:1,2012-11-04T05:40:00Z,27.1690,-82.9260,22.67,1111122 
COMPS,ioos:station:USF.COMPS:C10:1,2012-11-04T06:00:00Z,27.1690,-82.9260,22.67,1111122 
COMPS,ioos:station:USF.COMPS:C10:1,2012-11-04T06:20:00Z,27.1690,-82.9260,22.68,1111122 
COMPS,ioos:station:USF.COMPS:C10:1,2012-11-04T06:40:00Z,27.1690,-82.9260,22.64,1111122 
COMPS,ioos:station:USF.COMPS:C10:1,2012-11-04T07:00:00Z,27.1690,-82.9260,22.6,1111122 
COMPS,ioos:station:USF.COMPS:C10:1,2012-11-04T07:20:00Z,27.1690,-82.9260,22.49,1111122 
COMPS,ioos:station:USF.COMPS:C10:1,2012-11-04T07:40:00Z,27.1690,-82.9260,22.52,1111122 
COMPS,ioos:station:USF.COMPS:C10:1,2012-11-04T08:00:00Z,27.1690,-82.9260,22.5,1111122 
COMPS,ioos:station:USF.COMPS:C10:1,2012-11-04T08:20:00Z,27.1690,-82.9260,22.43,1111122 
COMPS,ioos:station:USF.COMPS:C10:1,2012-11-04T08:40:00Z,27.1690,-82.9260,22.29,1111122 
COMPS,ioos:station:USF.COMPS:C10:1,2012-11-04T09:00:00Z,27.1690,-82.9260,22.29,1111122 
COMPS,ioos:station:USF.COMPS:C10:1,2012-11-04T09:20:00Z,27.1690,-82.9260,22.31,1111122 
COMPS,ioos:station:USF.COMPS:C10:1,2012-11-04T09:40:00Z,27.1690,-82.9260,22.31,1111122 
COMPS,ioos:station:USF.COMPS:C10:1,2012-11-04T10:00:00Z,27.1690,-82.9260,22.14,1111122 
COMPS,ioos:station:USF.COMPS:C10:1,2012-11-04T10:20:00Z,27.1690,-82.9260,22.07,1111122 
COMPS,ioos:station:USF.COMPS:C10:1,2012-11-04T10:40:00Z,27.1690,-82.9260,22.06,1111122 
COMPS,ioos:station:USF.COMPS:C10:1,2012-11-04T11:00:00Z,27.1690,-82.9260,22.09,1111122 
COMPS,ioos:station:USF.COMPS:C10:1,2012-11-04T11:20:00Z,27.1690,-82.9260,22.16,1111122 
COMPS,ioos:station:USF.COMPS:C10:1,2012-11-04T11:40:00Z,27.1690,-82.9260,22.18,1111122 
COMPS,ioos:station:USF.COMPS:C10:1,2012-11-04T12:00:00Z,27.1690,-82.9260,22.34,1111122 
COMPS,ioos:station:USF.COMPS:C10:1,2012-11-04T12:20:00Z,27.1690,-82.9260,22.64,1111122 
COMPS,ioos:station:USF.COMPS:C10:1,2012-11-04T12:40:00Z,27.1690,-82.9260,22.32,1111122 
COMPS,ioos:station:USF.COMPS:C10:1,2012-11-04T13:00:00Z,27.1690,-82.9260,22.24,1111122 
COMPS,ioos:station:USF.COMPS:C10:1,2012-11-04T13:20:00Z,27.1690,-82.9260,21.72,1111122 
COMPS,ioos:station:USF.COMPS:C10:1,2012-11-04T13:40:00Z,27.1690,-82.9260,21.23,1111122 
COMPS,ioos:station:USF.COMPS:C10:1,2012-11-04T14:00:00Z,27.1690,-82.9260,20.92,1111122 
COMPS,ioos:station:USF.COMPS:C10:1,2012-11-04T14:20:00Z,27.1690,-82.9260,20.59,1111122 
COMPS,ioos:station:USF.COMPS:C10:1,2012-11-04T14:40:00Z,27.1690,-82.9260,20.17,1111122 
COMPS,ioos:station:USF.COMPS:C10:1,2012-11-04T15:00:00Z,27.1690,-82.9260,20.29,1111122 
COMPS,ioos:station:USF.COMPS:C10:1,2012-11-04T15:20:00Z,27.1690,-82.9260,20.14,1111122 
COMPS,ioos:station:USF.COMPS:C10:1,2012-11-04T15:40:00Z,27.1690,-82.9260,20.05,1111122 
COMPS,ioos:station:USF.COMPS:C10:1,2012-11-04T16:00:00Z,27.1690,-82.9260,20.34,1111122 
COMPS,ioos:station:USF.COMPS:C10:1,2012-11-04T16:20:00Z,27.1690,-82.9260,20.31,1111122 
COMPS,ioos:station:USF.COMPS:C10:1,2012-11-04T16:40:00Z,27.1690,-82.9260,20.47,1111122 
COMPS,ioos:station:USF.COMPS:C10:1,2012-11-04T17:00:00Z,27.1690,-82.9260,20.51,1111122 
COMPS,ioos:station:USF.COMPS:C10:1,2012-11-04T17:20:00Z,27.1690,-82.9260,20.74,1111122 
COMPS,ioos:station:USF.COMPS:C10:1,2012-11-04T17:40:00Z,27.1690,-82.9260,20.99,1111122 
COMPS,ioos:station:USF.COMPS:C10:1,2012-11-04T18:00:00Z,27.1690,-82.9260,21.2,1111122 
COMPS,ioos:station:USF.COMPS:C10:1,2012-11-04T18:20:00Z,27.1690,-82.9260,21.41,1111122 
COMPS,ioos:station:USF.COMPS:C10:1,2012-11-04T18:40:00Z,27.1690,-82.9260,21.66,1111122 
COMPS,ioos:station:USF.COMPS:C10:1,2012-11-04T19:00:00Z,27.1690,-82.9260,21.84,1111122 
COMPS,ioos:station:USF.COMPS:C10:1,2012-11-04T19:20:00Z,27.1690,-82.9260,22.07,1111122 
COMPS,ioos:station:USF.COMPS:C10:1,2012-11-04T19:40:00Z,27.1690,-82.9260,22.32,1111122 
COMPS,ioos:station:USF.COMPS:C10:1,2012-11-04T20:00:00Z,27.1690,-82.9260,22.71,1111122 
COMPS,ioos:station:USF.COMPS:C10:1,2012-11-04T20:20:00Z,27.1690,-82.9260,22.9,1111122 
COMPS,ioos:station:USF.COMPS:C10:1,2012-11-04T20:40:00Z,27.1690,-82.9260,23.34,1111122 
COMPS,ioos:station:USF.COMPS:C10:1,2012-11-04T21:00:00Z,27.1690,-82.9260,23.63,1111122 
COMPS,ioos:station:USF.COMPS:C10:1,2012-11-04T21:20:00Z,27.1690,-82.9260,23.32,1111122 
COMPS,ioos:station:USF.COMPS:C10:1,2012-11-04T21:40:00Z,27.1690,-82.9260,23.36,1111122 
COMPS,ioos:station:USF.COMPS:C10:1,2012-11-04T22:00:00Z,27.1690,-82.9260,23.0,1111122 
COMPS,ioos:station:USF.COMPS:C10:1,2012-11-04T22:20:00Z,27.1690,-82.9260,22.86,1111122 
COMPS,ioos:station:USF.COMPS:C10:1,2012-11-04T22:40:00Z,27.1690,-82.9260,22.59,1111122 
COMPS,ioos:station:USF.COMPS:C10:1,2012-11-04T23:00:00Z,27.1690,-82.9260,22.52,1111122 
COMPS,ioos:station:USF.COMPS:C10:1,2012-11-04T23:20:00Z,27.1690,-82.9260,22.51,1111122 
COMPS,ioos:station:USF.COMPS:C10:1,2012-11-04T23:40:00Z,27.1690,-82.9260,22.59,1111122 
COMPS,ioos:station:USF.COMPS:C10:1,2012-11-05T00:00:00Z,27.1690,-82.9260,22.63,1111122 
COMPS,ioos:station:USF.COMPS:C10:1,2012-11-05T00:20:00Z,27.1690,-82.9260,22.47,1111122 
COMPS,ioos:station:USF.COMPS:C10:1,2012-11-05T00:40:00Z,27.1690,-82.9260,22.53,1111122 
COMPS,ioos:station:USF.COMPS:C10:1,2012-11-05T01:00:00Z,27.1690,-82.9260,22.54,1111122 
COMPS,ioos:station:USF.COMPS:C10:1,2012-11-05T01:20:00Z,27.1690,-82.9260,22.57,1111122 
COMPS,ioos:station:USF.COMPS:C10:1,2012-11-05T01:40:00Z,27.1690,-82.9260,22.43,1111122 
COMPS,ioos:station:USF.COMPS:C10:1,2012-11-05T02:00:00Z,27.1690,-82.9260,22.36,1111122 
COMPS,ioos:station:USF.COMPS:C10:1,2012-11-05T02:20:00Z,27.1690,-82.9260,22.39,1111122 
COMPS,ioos:station:USF.COMPS:C10:1,2012-11-05T02:40:00Z,27.1690,-82.9260,22.42,1111122 
COMPS,ioos:station:USF.COMPS:C10:1,2012-11-05T03:00:00Z,27.1690,-82.9260,22.47,1111122 
COMPS,ioos:station:USF.COMPS:C10:1,2012-11-05T03:20:00Z,27.1690,-82.9260,22.7,1111122 
COMPS,ioos:station:USF.COMPS:C10:1,2012-11-05T03:40:00Z,27.1690,-82.9260,22.82,1111122 
COMPS,ioos:station:USF.COMPS:C10:1,2012-11-05T04:00:00Z,27.1690,-82.9260,22.95,1111122 
COMPS,ioos:station:USF.COMPS:C10:1,2012-11-05T04:20:00Z,27.1690,-82.9260,22.91,1111122 
COMPS,ioos:station:USF.COMPS:C10:1,2012-11-05T04:40:00Z,27.1690,-82.9260,22.89,1111122 
COMPS,ioos:station:USF.COMPS:C10:1,2012-11-05T05:00:00Z,27.1690,-82.9260,22.9,1111122 
COMPS,ioos:station:USF.COMPS:C10:1,2012-11-05T05:20:00Z,27.1690,-82.9260,22.92,1111122 
COMPS,ioos:station:USF.COMPS:C10:1,2012-11-05T05:40:00Z,27.1690,-82.9260,23.0,1111122 
COMPS,ioos:station:USF.COMPS:C10:1,2012-11-05T06:00:00Z,27.1690,-82.9260,23.16,1111122 
COMPS,ioos:station:USF.COMPS:C10:1,2012-11-05T06:20:00Z,27.1690,-82.9260,23.15,1111122 
COMPS,ioos:station:USF.COMPS:C10:1,2012-11-05T06:40:00Z,27.1690,-82.9260,23.18,1111122 
COMPS,ioos:station:USF.COMPS:C10:1,2012-11-05T07:00:00Z,27.1690,-82.9260,23.14,1111122 
COMPS,ioos:station:USF.COMPS:C10:1,2012-11-05T07:20:00Z,27.1690,-82.9260,23.16,1111122 
COMPS,ioos:station:USF.COMPS:C10:1,2012-11-05T07:40:00Z,27.1690,-82.9260,23.22,1111122 
COMPS,ioos:station:USF.COMPS:C10:1,2012-11-05T08:00:00Z,27.1690,-82.9260,23.21,1111122 
COMPS,ioos:station:USF.COMPS:C10:1,2012-11-05T08:20:00Z,27.1690,-82.9260,23.26,1111122 
COMPS,ioos:station:USF.COMPS:C10:1,2012-11-05T08:40:00Z,27.1690,-82.9260,23.32,1111122 
COMPS,ioos:station:USF.COMPS:C10:1,2012-11-05T09:00:00Z,27.1690,-82.9260,23.24,1111122 
COMPS,ioos:station:USF.COMPS:C10:1,2012-11-05T09:20:00Z,27.1690,-82.9260,23.39,1111122 
COMPS,ioos:station:USF.COMPS:C10:1,2012-11-05T09:40:00Z,27.1690,-82.9260,23.33,1111122 
COMPS,ioos:station:USF.COMPS:C10:1,2012-11-05T10:00:00Z,27.1690,-82.9260,23.41,1111122 
COMPS,ioos:station:USF.COMPS:C10:1,2012-11-05T10:20:00Z,27.1690,-82.9260,23.43,1111122 
COMPS,ioos:station:USF.COMPS:C10:1,2012-11-05T10:40:00Z,27.1690,-82.9260,23.49,1111122 
COMPS,ioos:station:USF.COMPS:C10:1,2012-11-05T11:00:00Z,27.1690,-82.9260,23.63,1111122 
COMPS,ioos:station:USF.COMPS:C10:1,2012-11-05T11:20:00Z,27.1690,-82.9260,23.61,1111122 
COMPS,ioos:station:USF.COMPS:C10:1,2012-11-05T11:40:00Z,27.1690,-82.9260,23.52,1111122 
COMPS,ioos:station:USF.COMPS:C10:1,2012-11-05T12:00:00Z,27.1690,-82.9260,23.5,1111122 
COMPS,ioos:station:USF.COMPS:C10:1,2012-11-05T12:20:00Z,27.1690,-82.9260,23.42,1111122 
COMPS,ioos:station:USF.COMPS:C10:1,2012-11-05T12:40:00Z,27.1690,-82.9260,23.49,1111122 
COMPS,ioos:station:USF.COMPS:C10:1,2012-11-05T13:00:00Z,27.1690,-82.9260,23.57,1111122 
COMPS,ioos:station:USF.COMPS:C10:1,2012-11-05T13:20:00Z,27.1690,-82.9260,23.44,1111122 
COMPS,ioos:station:USF.COMPS:C10:1,2012-11-05T13:40:00Z,27.1690,-82.9260,23.5,1111122 
COMPS,ioos:station:USF.COMPS:C10:1,2012-11-05T14:00:00Z,27.1690,-82.9260,23.3,1111122 
COMPS,ioos:station:USF.COMPS:C10:1,2012-11-05T14:20:00Z,27.1690,-82.9260,23.36,1111122 
COMPS,ioos:station:USF.COMPS:C10:1,2012-11-05T14:40:00Z,27.1690,-82.9260,23.35,1111122 
COMPS,ioos:station:USF.COMPS:C10:1,2012-11-05T15:00:00Z,27.1690,-82.9260,23.34,1111122 
COMPS,ioos:station:USF.COMPS:C10:1,2012-11-05T15:20:00Z,27.1690,-82.9260,23.38,1111122 
COMPS,ioos:station:USF.COMPS:C10:1,2012-11-05T15:40:00Z,27.1690,-82.9260,23.38,1111122 
COMPS,ioos:station:USF.COMPS:C10:1,2012-11-05T16:00:00Z,27.1690,-82.9260,23.39,1111122 
COMPS,ioos:station:USF.COMPS:C10:1,2012-11-05T16:20:00Z,27.1690,-82.9260,23.48,1111122 
COMPS,ioos:station:USF.COMPS:C10:1,2012-11-05T16:40:00Z,27.1690,-82.9260,23.12,1111122 
COMPS,ioos:station:USF.COMPS:C10:1,2012-11-05T17:00:00Z,27.1690,-82.9260,22.91,1111122 
COMPS,ioos:station:USF.COMPS:C10:1,2012-11-05T17:20:00Z,27.1690,-82.9260,22.74,1111122 
COMPS,ioos:station:USF.COMPS:C10:1,2012-11-05T17:40:00Z,27.1690,-82.9260,22.53,1111122 
COMPS,ioos:station:USF.COMPS:C10:1,2012-11-05T18:00:00Z,27.1690,-82.9260,22.48,1111122 
COMPS,ioos:station:USF.COMPS:C10:1,2012-11-05T18:20:00Z,27.1690,-82.9260,22.58,1111122 
COMPS,ioos:station:USF.COMPS:C10:1,2012-11-05T18:40:00Z,27.1690,-82.9260,22.46,1111122 
COMPS,ioos:station:USF.COMPS:C10:1,2012-11-05T19:00:00Z,27.1690,-82.9260,22.25,1111122 
COMPS,ioos:station:USF.COMPS:C10:1,2012-11-05T19:20:00Z,27.1690,-82.9260,22.06,1111122 
COMPS,ioos:station:USF.COMPS:C10:1,2012-11-05T19:40:00Z,27.1690,-82.9260,22.05,1111122 
COMPS,ioos:station:USF.COMPS:C10:1,2012-11-05T20:00:00Z,27.1690,-82.9260,22.22,1111122 
COMPS,ioos:station:USF.COMPS:C10:1,2012-11-05T20:20:00Z,27.1690,-82.9260,22.31,1111122 
COMPS,ioos:station:USF.COMPS:C10:1,2012-11-05T20:40:00Z,27.1690,-82.9260,22.51,1111122 
COMPS,ioos:station:USF.COMPS:C10:1,2012-11-05T21:00:00Z,27.1690,-82.9260,22.49,1111122 
COMPS,ioos:station:USF.COMPS:C10:1,2012-11-05T21:20:00Z,27.1690,-82.9260,22.55,1111122 
COMPS,ioos:station:USF.COMPS:C10:1,2012-11-05T21:40:00Z,27.1690,-82.9260,22.34,1111122 
COMPS,ioos:station:USF.COMPS:C10:1,2012-11-05T22:00:00Z,27.1690,-82.9260,22.31,1111122 
COMPS,ioos:station:USF.COMPS:C10:1,2012-11-05T22:20:00Z,27.1690,-82.9260,22.32,1111122 
COMPS,ioos:station:USF.COMPS:C10:1,2012-11-05T22:40:00Z,27.1690,-82.9260,22.36,1111122 
COMPS,ioos:station:USF.COMPS:C10:1,2012-11-05T23:00:00Z,27.1690,-82.9260,22.41,1111122 
COMPS,ioos:station:USF.COMPS:C10:1,2012-11-05T23:20:00Z,27.1690,-82.9260,22.31,1111122 
COMPS,ioos:station:USF.COMPS:C10:1,2012-11-05T23:40:00Z,27.1690,-82.9260,22.34,1111122 
COMPS,ioos:station:USF.COMPS:C10:1,2012-11-06T01:00:00Z,27.1690,-82.9260,22.12,1111122 
COMPS,ioos:station:USF.COMPS:C10:1,2012-11-06T01:20:00Z,27.1690,-82.9260,22.15,1111122 
COMPS,ioos:station:USF.COMPS:C10:1,2012-11-06T01:40:00Z,27.1690,-82.9260,22.22,1111122 
COMPS,ioos:station:USF.COMPS:C10:1,2012-11-06T02:00:00Z,27.1690,-82.9260,22.17,1111122 
COMPS,ioos:station:USF.COMPS:C10:1,2012-11-06T02:20:00Z,27.1690,-82.9260,22.18,1111122 
COMPS,ioos:station:USF.COMPS:C10:1,2012-11-06T02:40:00Z,27.1690,-82.9260,22.21,1111122 
COMPS,ioos:station:USF.COMPS:C10:1,2012-11-06T03:00:00Z,27.1690,-82.9260,22.17,1111122 
COMPS,ioos:station:USF.COMPS:C10:1,2012-11-06T03:20:00Z,27.1690,-82.9260,22.22,1111122 
COMPS,ioos:station:USF.COMPS:C10:1,2012-11-06T03:40:00Z,27.1690,-82.9260,22.23,1111122 
COMPS,ioos:station:USF.COMPS:C10:1,2012-11-06T04:00:00Z,27.1690,-82.9260,22.16,1111122 
COMPS,ioos:station:USF.COMPS:C10:1,2012-11-06T04:20:00Z,27.1690,-82.9260,22.18,1111122 
COMPS,ioos:station:USF.COMPS:C10:1,2012-11-06T04:40:00Z,27.1690,-82.9260,22.09,1111122 